When you browse on this site, cookies collect data to enhance your experience and personalize the content and advertising you see.
Visit our Privacy Policy to learn more. By continuing to use the site, you agree to this use of cookies and data.
  • En España
  • Lista de países
  • Para 7 días
  • Temperatura del agua
  • El tiempo en el mapa
  • Informadores
  • user-avatar
    Iniciar sesión

    Tiempo cada hora Birmingham

    Hoy, 17 Febrero, Lunes

    Tiempo Temperatura Precipitaciones Viento Presión Humedad
    00:00 +2°C° 0 mm 7 mps 737 mmHg 79%
    01:00 +1°C° 0 mm 8 mps 737 mmHg 77%
    02:00 +2°C° 0 mm 9 mps 737 mmHg 75%
    03:00 +2°C° 0 mm 9 mps 737 mmHg 73%
    04:00 +2°C° 0 mm 9 mps 737 mmHg 72%
    05:00 +2°C° 0 mm 9 mps 737 mmHg 72%
    06:00 +2°C° 0 mm 7 mps 737 mmHg 77%
    07:00 +2°C° 0 mm 7 mps 738 mmHg 79%
    08:00 +2°C° 0 mm 8 mps 738 mmHg 80%
    09:00 +2°C° 0 mm 8 mps 738 mmHg 82%
    10:00 +4°C° 0.1 mm 8 mps 739 mmHg 77%
    11:00 +5°C° 0.1 mm 8 mps 740 mmHg 73%
    12:00 +7°C° 0.1 mm 8 mps 740 mmHg 68%
    13:00 +6°C° 0.1 mm 8 mps 741 mmHg 68%
    14:00 +6°C° 0.1 mm 8 mps 741 mmHg 68%
    15:00 +6°C° 0.1 mm 8 mps 742 mmHg 68%
    16:00 +5°C° 0.1 mm 8 mps 742 mmHg 71%
    17:00 +4°C° 0.1 mm 7 mps 743 mmHg 74%
    18:00 +3°C° 0.1 mm 6 mps 744 mmHg 76%
    19:00 +2°C° 0 mm 6 mps 745 mmHg 75%
    20:00 +2°C° 0 mm 6 mps 745 mmHg 75%
    21:00 0°C° 0 mm 7 mps 746 mmHg 74%
    22:00 +1°C° 0 mm 6 mps 747 mmHg 74%
    23:00 +1°C° 0 mm 6 mps 747 mmHg 75%

    Mañana, 18 Febrero, Martes

    Tiempo Temperatura Precipitaciones Viento Presión Humedad
    00:00 -1°C° 0 mm 6 mps 748 mmHg 76%
    01:00 -1°C° 0 mm 6 mps 748 mmHg 76%
    02:00 -1°C° 0 mm 6 mps 748 mmHg 77%
    03:00 -1°C° 0 mm 6 mps 749 mmHg 77%
    04:00 -1°C° 0 mm 6 mps 749 mmHg 78%
    05:00 +1°C° 0 mm 6 mps 749 mmHg 78%
    06:00 +1°C° 0 mm 6 mps 749 mmHg 79%
    07:00 0°C° 0 mm 7 mps 749 mmHg 79%
    08:00 +2°C° 0 mm 7 mps 749 mmHg 79%
    09:00 +2°C° 0 mm 8 mps 749 mmHg 79%
    10:00 +2°C° 0.1 mm 8 mps 749 mmHg 78%
    11:00 +4°C° 0.1 mm 8 mps 748 mmHg 77%
    12:00 +5°C° 0.1 mm 8 mps 748 mmHg 76%
    13:00 +5°C° 0.1 mm 8 mps 748 mmHg 75%
    14:00 +5°C° 0.1 mm 8 mps 747 mmHg 73%
    15:00 +5°C° 0.1 mm 7 mps 746 mmHg 71%
    16:00 +5°C° 0.6 mm 7 mps 746 mmHg 77%
    17:00 +4°C° 0.6 mm 7 mps 746 mmHg 82%
    18:00 +3°C° 0.6 mm 7 mps 746 mmHg 87%
    19:00 +2°C° 0.1 mm 7 mps 746 mmHg 84%
    20:00 +1°C° 0.1 mm 6 mps 746 mmHg 81%
    21:00 0°C° 0.1 mm 5 mps 747 mmHg 78%
    22:00 0°C° 0 mm 5 mps 747 mmHg 79%
    23:00 0°C° 0 mm 5 mps 747 mmHg 80%

    Pasado mañana, 19 Febrero, Miércoles

    Tiempo Temperatura Precipitaciones Viento Presión Humedad
    00:00 -1°C° 0 mm 5 mps 748 mmHg 80%
    01:00 -1°C° 0 mm 5 mps 748 mmHg 80%
    02:00 -1°C° 0 mm 5 mps 749 mmHg 80%
    03:00 -2°C° 0 mm 6 mps 749 mmHg 80%
    04:00 -1°C° 0 mm 5 mps 749 mmHg 80%
    05:00 -1°C° 0 mm 5 mps 749 mmHg 81%
    06:00 -1°C° 0 mm 4 mps 750 mmHg 81%
    07:00 -1°C° 0 mm 4 mps 750 mmHg 81%
    08:00 0°C° 0 mm 4 mps 750 mmHg 80%
    09:00 0°C° 0 mm 4 mps 750 mmHg 79%
    10:00 +1°C° 0 mm 5 mps 750 mmHg 77%
    11:00 +2°C° 0 mm 5 mps 750 mmHg 75%
    12:00 +4°C° 0 mm 6 mps 750 mmHg 73%
    13:00 +3°C° 0.2 mm 6 mps 749 mmHg 79%
    14:00 +3°C° 0.2 mm 6 mps 748 mmHg 85%
    15:00 +3°C° 0.2 mm 6 mps 748 mmHg 92%
    16:00 +4°C° 0.1 mm 6 mps 747 mmHg 91%
    17:00 +4°C° 0.1 mm 6 mps 746 mmHg 90%
    18:00 +5°C° 0.1 mm 7 mps 745 mmHg 90%
    19:00 +5°C° 0.1 mm 7 mps 745 mmHg 89%
    20:00 +5°C° 0.1 mm 8 mps 744 mmHg 88%
    21:00 +5°C° 0.1 mm 8 mps 744 mmHg 87%
    22:00 +5°C° 0 mm 8 mps 743 mmHg 87%
    23:00 +5°C° 0 mm 8 mps 743 mmHg 86%

    20 Febrero, Jueves

    Tiempo Temperatura Precipitaciones Viento Presión Humedad
    00:00 +5°C° 0 mm 8 mps 743 mmHg 86%
    01:00 +5°C° 0 mm 8 mps 742 mmHg 86%
    02:00 +5°C° 0 mm 8 mps 741 mmHg 86%
    03:00 +6°C° 0 mm 8 mps 741 mmHg 85%
    04:00 +5°C° 0 mm 8 mps 740 mmHg 86%
    05:00 +5°C° 0 mm 8 mps 740 mmHg 86%
    06:00 +5°C° 0 mm 8 mps 739 mmHg 86%
    07:00 +5°C° 0.1 mm 9 mps 738 mmHg 86%
    08:00 +6°C° 0.1 mm 9 mps 738 mmHg 85%
    09:00 +6°C° 0.1 mm 10 mps 737 mmHg 85%
    10:00 +6°C° 0.3 mm 10 mps 737 mmHg 83%
    11:00 +7°C° 0.3 mm 10 mps 737 mmHg 80%
    12:00 +7°C° 0.3 mm 10 mps 737 mmHg 78%
    13:00 +6°C° 0.4 mm 9 mps 738 mmHg 78%
    14:00 +5°C° 0.4 mm 9 mps 739 mmHg 78%
    15:00 +2°C° 0.4 mm 8 mps 740 mmHg 78%
    16:00 +2°C° 0.3 mm 8 mps 742 mmHg 76%
    17:00 +2°C° 0.3 mm 7 mps 743 mmHg 73%
    18:00 +1°C° 0.3 mm 6 mps 745 mmHg 71%
    19:00 +1°C° 0 mm 6 mps 746 mmHg 72%
    20:00 -1°C° 0 mm 6 mps 747 mmHg 73%
    21:00 -1°C° 0 mm 6 mps 748 mmHg 74%
    22:00 -1°C° 0 mm 6 mps 749 mmHg 75%
    23:00 0°C° 0 mm 5 mps 750 mmHg 77%

    21 Febrero, Viernes

    Tiempo Temperatura Precipitaciones Viento Presión Humedad
    00:00 -1°C° 0 mm 5 mps 751 mmHg 79%
    01:00 0°C° 0 mm 5 mps 751 mmHg 79%
    02:00 0°C° 0 mm 5 mps 752 mmHg 80%
    03:00 0°C° 0 mm 5 mps 752 mmHg 81%
    04:00 0°C° 0 mm 5 mps 752 mmHg 81%
    05:00 -1°C° 0 mm 6 mps 752 mmHg 81%
    06:00 -1°C° 0 mm 6 mps 752 mmHg 81%
    13:00 +5°C° 0 mm 10 mps 750 mmHg 75%
    14:00 +4°C° 0 mm 11 mps 750 mmHg 75%
    15:00 +4°C° 0 mm 11 mps 749 mmHg 75%
    16:00 +6°C° 0.2 mm 10 mps 749 mmHg 78%
    17:00 +6°C° 0.2 mm 10 mps 748 mmHg 81%
    18:00 +6°C° 0.2 mm 10 mps 748 mmHg 85%
    19:00 +6°C° 0.1 mm 10 mps 748 mmHg 85%
    20:00 +7°C° 0.1 mm 9 mps 748 mmHg 85%
    21:00 +7°C° 0.1 mm 9 mps 748 mmHg 86%
    22:00 +7°C° 0 mm 9 mps 748 mmHg 86%
    23:00 +9°C° 0 mm 8 mps 748 mmHg 87%

    22 Febrero, Sábado

    Tiempo Temperatura Precipitaciones Viento Presión Humedad
    00:00 +9°C° 0 mm 8 mps 748 mmHg 87%
    01:00 +9°C° 0 mm 8 mps 748 mmHg 86%
    02:00 +10°C° 0 mm 8 mps 748 mmHg 86%
    03:00 +10°C° 0 mm 8 mps 748 mmHg 85%
    04:00 +10°C° 0 mm 8 mps 748 mmHg 85%
    05:00 +9°C° 0 mm 7 mps 749 mmHg 86%
    06:00 +9°C° 0 mm 7 mps 749 mmHg 86%
    07:00 +9°C° 0 mm 7 mps 750 mmHg 84%
    08:00 +9°C° 0 mm 7 mps 750 mmHg 83%
    09:00 +9°C° 0 mm 7 mps 750 mmHg 81%
    10:00 +9°C° 0 mm 8 mps 751 mmHg 77%
    11:00 +10°C° 0 mm 9 mps 751 mmHg 72%
    12:00 +10°C° 0 mm 9 mps 752 mmHg 67%
    13:00 +10°C° 0 mm 9 mps 752 mmHg 68%
    14:00 +10°C° 0 mm 8 mps 752 mmHg 68%
    15:00 +10°C° 0 mm 8 mps 752 mmHg 68%
    16:00 +9°C° 0 mm 7 mps 753 mmHg 72%
    17:00 +8°C° 0 mm 6 mps 753 mmHg 75%
    18:00 +8°C° 0 mm 5 mps 753 mmHg 79%
    19:00 +8°C° 0 mm 5 mps 753 mmHg 80%
    20:00 +8°C° 0 mm 5 mps 753 mmHg 82%
    21:00 +8°C° 0 mm 5 mps 753 mmHg 84%
    22:00 +9°C° 0.1 mm 6 mps 753 mmHg 85%
    23:00 +10°C° 0.1 mm 7 mps 753 mmHg 86%
    Mostrar más